owner,sensor,date,latitude,longitude,vertical_datum,wind_speed,wind_to_direction,wind_speed_of_gust,qcFlag 
SCCF RECON,ioos:station:SCCF:53:1,2014-12-01T00:00:00Z,26.6493,-81.8810,2.11,4.1,81.4,-9999.0,'1111122,1111122,1111122' 
SCCF RECON,ioos:station:SCCF:53:1,2014-12-01T00:15:00Z,26.6493,-81.8810,2.11,3.8,83.2,-9999.0,'1111122,1111122,1111122' 
SCCF RECON,ioos:station:SCCF:53:1,2014-12-01T00:30:00Z,26.6493,-81.8810,2.11,3.5,80.0,-9999.0,'1111122,1111122,1111122' 
SCCF RECON,ioos:station:SCCF:53:1,2014-12-01T00:45:00Z,26.6493,-81.8810,2.11,3.1,74.3,-9999.0,'1111122,1111122,1111122' 
SCCF RECON,ioos:station:SCCF:53:1,2014-12-01T01:00:00Z,26.6493,-81.8810,2.11,3.4,77.7,-9999.0,'1111122,1111122,1111122' 
SCCF RECON,ioos:station:SCCF:53:1,2014-12-01T01:15:00Z,26.6493,-81.8810,2.11,3.7,79.8,-9999.0,'1111122,1111122,1111122' 
SCCF RECON,ioos:station:SCCF:53:1,2014-12-01T01:30:00Z,26.6493,-81.8810,2.11,3.5,82.7,-9999.0,'1111122,1111122,1111122' 
SCCF RECON,ioos:station:SCCF:53:1,2014-12-01T01:45:00Z,26.6493,-81.8810,2.11,4.0,86.2,-9999.0,'1111122,1111122,1111122' 
SCCF RECON,ioos:station:SCCF:53:1,2014-12-01T02:00:00Z,26.6493,-81.8810,2.11,3.2,81.6,-9999.0,'1111122,1111122,1111122' 
SCCF RECON,ioos:station:SCCF:53:1,2014-12-01T02:15:00Z,26.6493,-81.8810,2.11,2.9,79.6,-9999.0,'1111122,1111122,1111122' 
SCCF RECON,ioos:station:SCCF:53:1,2014-12-01T02:30:00Z,26.6493,-81.8810,2.11,3.7,73.6,-9999.0,'1111122,1111122,1111122' 
SCCF RECON,ioos:station:SCCF:53:1,2014-12-01T02:45:00Z,26.6493,-81.8810,2.11,4.4,75.3,-9999.0,'1111122,1111122,1111122' 
SCCF RECON,ioos:station:SCCF:53:1,2014-12-01T03:00:00Z,26.6493,-81.8810,2.11,2.9,78.8,-9999.0,'1111122,1111122,1111122' 
SCCF RECON,ioos:station:SCCF:53:1,2014-12-01T03:15:00Z,26.6493,-81.8810,2.11,3.5,47.1,-9999.0,'1111122,1111122,1111122' 
SCCF RECON,ioos:station:SCCF:53:1,2014-12-01T03:30:00Z,26.6493,-81.8810,2.11,3.7,62.1,-9999.0,'1111122,1111122,1111122' 
SCCF RECON,ioos:station:SCCF:53:1,2014-12-01T03:45:00Z,26.6493,-81.8810,2.11,2.3,72.7,-9999.0,'1111122,1111122,1111122' 
SCCF RECON,ioos:station:SCCF:53:1,2014-12-01T04:00:00Z,26.6493,-81.8810,2.11,2.0,62.9,-9999.0,'1111122,1111122,1111122' 
SCCF RECON,ioos:station:SCCF:53:1,2014-12-01T04:15:00Z,26.6493,-81.8810,2.11,2.1,46.8,-9999.0,'1111122,1111122,1111122' 
SCCF RECON,ioos:station:SCCF:53:1,2014-12-01T04:30:00Z,26.6493,-81.8810,2.11,2.3,34.6,-9999.0,'1111122,1111122,1111122' 
SCCF RECON,ioos:station:SCCF:53:1,2014-12-01T04:45:00Z,26.6493,-81.8810,2.11,2.4,38.2,-9999.0,'1111122,1111122,1111122' 
SCCF RECON,ioos:station:SCCF:53:1,2014-12-01T05:00:00Z,26.6493,-81.8810,2.11,4.2,32.1,-9999.0,'1111122,1111122,1111122' 
SCCF RECON,ioos:station:SCCF:53:1,2014-12-01T05:15:00Z,26.6493,-81.8810,2.11,3.4,43.2,-9999.0,'1111122,1111122,1111122' 
SCCF RECON,ioos:station:SCCF:53:1,2014-12-01T05:30:00Z,26.6493,-81.8810,2.11,4.3,32.0,-9999.0,'1111122,1111122,1111122' 
SCCF RECON,ioos:station:SCCF:53:1,2014-12-01T05:45:00Z,26.6493,-81.8810,2.11,3.2,46.5,-9999.0,'1111122,1111122,1111122' 
SCCF RECON,ioos:station:SCCF:53:1,2014-12-01T06:00:00Z,26.6493,-81.8810,2.11,3.3,46.2,-9999.0,'1111122,1111122,1111122' 
SCCF RECON,ioos:station:SCCF:53:1,2014-12-01T06:15:00Z,26.6493,-81.8810,2.11,4.1,47.1,-9999.0,'1111122,1111122,1111122' 
SCCF RECON,ioos:station:SCCF:53:1,2014-12-01T06:30:00Z,26.6493,-81.8810,2.11,4.5,45.7,-9999.0,'1111122,1111122,1111122' 
SCCF RECON,ioos:station:SCCF:53:1,2014-12-01T06:45:00Z,26.6493,-81.8810,2.11,3.5,34.3,-9999.0,'1111122,1111122,1111122' 
SCCF RECON,ioos:station:SCCF:53:1,2014-12-01T07:00:00Z,26.6493,-81.8810,2.11,3.4,34.8,-9999.0,'1111122,1111122,1111122' 
SCCF RECON,ioos:station:SCCF:53:1,2014-12-01T07:15:00Z,26.6493,-81.8810,2.11,3.4,32.5,-9999.0,'1111122,1111122,1111122' 
SCCF RECON,ioos:station:SCCF:53:1,2014-12-01T07:30:00Z,26.6493,-81.8810,2.11,3.2,34.1,-9999.0,'1111122,1111122,1111122' 
SCCF RECON,ioos:station:SCCF:53:1,2014-12-01T07:45:00Z,26.6493,-81.8810,2.11,3.2,29.8,-9999.0,'1111122,1111122,1111122' 
SCCF RECON,ioos:station:SCCF:53:1,2014-12-01T08:00:00Z,26.6493,-81.8810,2.11,3.7,28.7,-9999.0,'1111122,1111122,1111122' 
SCCF RECON,ioos:station:SCCF:53:1,2014-12-01T08:15:00Z,26.6493,-81.8810,2.11,3.8,27.0,-9999.0,'1111122,1111122,1111122' 
SCCF RECON,ioos:station:SCCF:53:1,2014-12-01T08:30:00Z,26.6493,-81.8810,2.11,4.1,32.7,-9999.0,'1111122,1111122,1111122' 
SCCF RECON,ioos:station:SCCF:53:1,2014-12-01T08:45:00Z,26.6493,-81.8810,2.11,3.6,42.9,-9999.0,'1111122,1111122,1111122' 
SCCF RECON,ioos:station:SCCF:53:1,2014-12-01T09:00:00Z,26.6493,-81.8810,2.11,4.2,39.5,-9999.0,'1111122,1111122,1111122' 
SCCF RECON,ioos:station:SCCF:53:1,2014-12-01T09:15:00Z,26.6493,-81.8810,2.11,4.2,37.3,-9999.0,'1111122,1111122,1111122' 
SCCF RECON,ioos:station:SCCF:53:1,2014-12-01T09:30:00Z,26.6493,-81.8810,2.11,3.4,34.9,-9999.0,'1111122,1111122,1111122' 
SCCF RECON,ioos:station:SCCF:53:1,2014-12-01T09:45:00Z,26.6493,-81.8810,2.11,3.5,42.1,-9999.0,'1111122,1111122,1111122' 
SCCF RECON,ioos:station:SCCF:53:1,2014-12-01T10:00:00Z,26.6493,-81.8810,2.11,3.3,26.9,-9999.0,'1111122,1111122,1111122' 
SCCF RECON,ioos:station:SCCF:53:1,2014-12-01T10:15:00Z,26.6493,-81.8810,2.11,3.5,35.4,-9999.0,'1111122,1111122,1111122' 
SCCF RECON,ioos:station:SCCF:53:1,2014-12-01T10:30:00Z,26.6493,-81.8810,2.11,4.3,43.1,-9999.0,'1111122,1111122,1111122' 
SCCF RECON,ioos:station:SCCF:53:1,2014-12-01T10:45:00Z,26.6493,-81.8810,2.11,4.8,45.2,-9999.0,'1111122,1111122,1111122' 
SCCF RECON,ioos:station:SCCF:53:1,2014-12-01T11:00:00Z,26.6493,-81.8810,2.11,4.0,50.1,-9999.0,'1111122,1111122,1111122' 
SCCF RECON,ioos:station:SCCF:53:1,2014-12-01T11:15:00Z,26.6493,-81.8810,2.11,4.4,34.6,-9999.0,'1111122,1111122,1111122' 
SCCF RECON,ioos:station:SCCF:53:1,2014-12-01T11:30:00Z,26.6493,-81.8810,2.11,4.2,46.1,-9999.0,'1111122,1111122,1111122' 
SCCF RECON,ioos:station:SCCF:53:1,2014-12-01T11:45:00Z,26.6493,-81.8810,2.11,4.0,69.5,-9999.0,'1111122,1111122,1111122' 
SCCF RECON,ioos:station:SCCF:53:1,2014-12-01T12:00:00Z,26.6493,-81.8810,2.11,5.0,70.3,-9999.0,'1111122,1111122,1111122' 
SCCF RECON,ioos:station:SCCF:53:1,2014-12-01T12:15:00Z,26.6493,-81.8810,2.11,3.2,33.2,-9999.0,'1111122,1111122,1111122' 
SCCF RECON,ioos:station:SCCF:53:1,2014-12-01T12:30:00Z,26.6493,-81.8810,2.11,4.7,72.0,-9999.0,'1111122,1111122,1111122' 
SCCF RECON,ioos:station:SCCF:53:1,2014-12-01T12:45:00Z,26.6493,-81.8810,2.11,4.4,75.6,-9999.0,'1111122,1111122,1111122' 
SCCF RECON,ioos:station:SCCF:53:1,2014-12-01T13:00:00Z,26.6493,-81.8810,2.11,5.0,76.1,-9999.0,'1111122,1111122,1111122' 
SCCF RECON,ioos:station:SCCF:53:1,2014-12-01T13:15:00Z,26.6493,-81.8810,2.11,4.5,75.0,-9999.0,'1111122,1111122,1111122' 
SCCF RECON,ioos:station:SCCF:53:1,2014-12-01T13:30:00Z,26.6493,-81.8810,2.11,4.5,80.7,-9999.0,'1111122,1111122,1111122' 
SCCF RECON,ioos:station:SCCF:53:1,2014-12-01T13:45:00Z,26.6493,-81.8810,2.11,4.4,85.2,-9999.0,'1111122,1111122,1111122' 
SCCF RECON,ioos:station:SCCF:53:1,2014-12-01T14:00:00Z,26.6493,-81.8810,2.11,4.0,73.9,-9999.0,'1111122,1111122,1111122' 
SCCF RECON,ioos:station:SCCF:53:1,2014-12-01T14:15:00Z,26.6493,-81.8810,2.11,4.1,85.4,-9999.0,'1111122,1111122,1111122' 
SCCF RECON,ioos:station:SCCF:53:1,2014-12-01T14:30:00Z,26.6493,-81.8810,2.11,5.1,80.7,-9999.0,'1111122,1111122,1111122' 
SCCF RECON,ioos:station:SCCF:53:1,2014-12-01T14:45:00Z,26.6493,-81.8810,2.11,4.3,89.4,-9999.0,'1111122,1111122,1111122' 
SCCF RECON,ioos:station:SCCF:53:1,2014-12-01T15:00:00Z,26.6493,-81.8810,2.11,5.3,70.0,-9999.0,'1111122,1111122,1111122' 
SCCF RECON,ioos:station:SCCF:53:1,2014-12-01T15:15:00Z,26.6493,-81.8810,2.11,5.0,99.2,-9999.0,'1111122,1111122,1111122' 
SCCF RECON,ioos:station:SCCF:53:1,2014-12-01T15:30:00Z,26.6493,-81.8810,2.11,6.7,60.6,-9999.0,'1111122,1111122,1111122' 
SCCF RECON,ioos:station:SCCF:53:1,2014-12-01T15:45:00Z,26.6493,-81.8810,2.11,5.2,64.3,-9999.0,'1111122,1111122,1111122' 
SCCF RECON,ioos:station:SCCF:53:1,2014-12-01T16:00:00Z,26.6493,-81.8810,2.11,6.0,73.1,-9999.0,'1111122,1111122,1111122' 
SCCF RECON,ioos:station:SCCF:53:1,2014-12-01T16:15:00Z,26.6493,-81.8810,2.11,4.7,53.5,-9999.0,'1111122,1111122,1111122' 
SCCF RECON,ioos:station:SCCF:53:1,2014-12-01T16:30:00Z,26.6493,-81.8810,2.11,5.2,89.7,-9999.0,'1111122,1111122,1111122' 
SCCF RECON,ioos:station:SCCF:53:1,2014-12-01T16:45:00Z,26.6493,-81.8810,2.11,8.0,82.7,-9999.0,'1111122,1111122,1111122' 
SCCF RECON,ioos:station:SCCF:53:1,2014-12-01T17:00:00Z,26.6493,-81.8810,2.11,3.6,76.5,-9999.0,'1111122,1111122,1111122' 
SCCF RECON,ioos:station:SCCF:53:1,2014-12-01T17:15:00Z,26.6493,-81.8810,2.11,5.3,103.1,-9999.0,'1111122,1111122,1111122' 
SCCF RECON,ioos:station:SCCF:53:1,2014-12-01T17:30:00Z,26.6493,-81.8810,2.11,4.1,52.5,-9999.0,'1111122,1111122,1111122' 
SCCF RECON,ioos:station:SCCF:53:1,2014-12-01T17:45:00Z,26.6493,-81.8810,2.11,5.5,75.8,-9999.0,'1111122,1111122,1111122' 
SCCF RECON,ioos:station:SCCF:53:1,2014-12-01T18:00:00Z,26.6493,-81.8810,2.11,5.3,43.5,-9999.0,'1111122,1111122,1111122' 
SCCF RECON,ioos:station:SCCF:53:1,2014-12-01T18:15:00Z,26.6493,-81.8810,2.11,3.9,59.5,-9999.0,'1111122,1111122,1111122' 
SCCF RECON,ioos:station:SCCF:53:1,2014-12-01T18:30:00Z,26.6493,-81.8810,2.11,5.2,55.1,-9999.0,'1111122,1111122,1111122' 
SCCF RECON,ioos:station:SCCF:53:1,2014-12-01T18:45:00Z,26.6493,-81.8810,2.11,3.9,82.4,-9999.0,'1111122,1111122,1111122' 
SCCF RECON,ioos:station:SCCF:53:1,2014-12-01T19:00:00Z,26.6493,-81.8810,2.11,5.8,62.7,-9999.0,'1111122,1111122,1111122' 
SCCF RECON,ioos:station:SCCF:53:1,2014-12-01T19:15:00Z,26.6493,-81.8810,2.11,3.8,67.2,-9999.0,'1111122,1111122,1111122' 
SCCF RECON,ioos:station:SCCF:53:1,2014-12-01T19:30:00Z,26.6493,-81.8810,2.11,5.6,45.7,-9999.0,'1111122,1111122,1111122' 
SCCF RECON,ioos:station:SCCF:53:1,2014-12-01T19:45:00Z,26.6493,-81.8810,2.11,5.4,63.5,-9999.0,'1111122,1111122,1111122' 
SCCF RECON,ioos:station:SCCF:53:1,2014-12-01T20:00:00Z,26.6493,-81.8810,2.11,3.9,35.0,-9999.0,'1111122,1111122,1111122' 
SCCF RECON,ioos:station:SCCF:53:1,2014-12-01T20:15:00Z,26.6493,-81.8810,2.11,5.9,50.0,-9999.0,'1111122,1111122,1111122' 
SCCF RECON,ioos:station:SCCF:53:1,2014-12-01T20:30:00Z,26.6493,-81.8810,2.11,7.2,58.3,-9999.0,'1111122,1111122,1111122' 
SCCF RECON,ioos:station:SCCF:53:1,2014-12-01T20:45:00Z,26.6493,-81.8810,2.11,6.2,67.8,-9999.0,'1111122,1111122,1111122' 
SCCF RECON,ioos:station:SCCF:53:1,2014-12-01T21:00:00Z,26.6493,-81.8810,2.11,4.1,80.0,-9999.0,'1111122,1111122,1111122' 
SCCF RECON,ioos:station:SCCF:53:1,2014-12-01T21:15:00Z,26.6493,-81.8810,2.11,4.1,56.0,-9999.0,'1111122,1111122,1111122' 
SCCF RECON,ioos:station:SCCF:53:1,2014-12-01T21:30:00Z,26.6493,-81.8810,2.11,5.4,64.8,-9999.0,'1111122,1111122,1111122' 
SCCF RECON,ioos:station:SCCF:53:1,2014-12-01T21:45:00Z,26.6493,-81.8810,2.11,5.1,68.0,-9999.0,'1111122,1111122,1111122' 
SCCF RECON,ioos:station:SCCF:53:1,2014-12-01T22:00:00Z,26.6493,-81.8810,2.11,7.8,59.5,-9999.0,'1111122,1111122,1111122' 
SCCF RECON,ioos:station:SCCF:53:1,2014-12-01T22:15:00Z,26.6493,-81.8810,2.11,6.8,95.0,-9999.0,'1111122,1111122,1111122' 
SCCF RECON,ioos:station:SCCF:53:1,2014-12-01T22:30:00Z,26.6493,-81.8810,2.11,5.7,85.9,-9999.0,'1111122,1111122,1111122' 
SCCF RECON,ioos:station:SCCF:53:1,2014-12-01T22:45:00Z,26.6493,-81.8810,2.11,3.6,70.6,-9999.0,'1111122,1111122,1111122' 
SCCF RECON,ioos:station:SCCF:53:1,2014-12-01T23:00:00Z,26.6493,-81.8810,2.11,5.3,72.5,-9999.0,'1111122,1111122,1111122' 
SCCF RECON,ioos:station:SCCF:53:1,2014-12-01T23:15:00Z,26.6493,-81.8810,2.11,4.4,68.7,-9999.0,'1111122,1111122,1111122' 
SCCF RECON,ioos:station:SCCF:53:1,2014-12-01T23:30:00Z,26.6493,-81.8810,2.11,4.9,79.8,-9999.0,'1111122,1111122,1111122' 
SCCF RECON,ioos:station:SCCF:53:1,2014-12-01T23:45:00Z,26.6493,-81.8810,2.11,4.6,75.0,-9999.0,'1111122,1111122,1111122' 
SCCF RECON,ioos:station:SCCF:53:1,2014-12-02T00:00:00Z,26.6493,-81.8810,2.11,3.1,87.6,-9999.0,'1111122,1111122,1111122' 
SCCF RECON,ioos:station:SCCF:53:1,2014-12-02T00:15:00Z,26.6493,-81.8810,2.11,3.5,65.5,-9999.0,'1111122,1111122,1111122' 
SCCF RECON,ioos:station:SCCF:53:1,2014-12-02T00:30:00Z,26.6493,-81.8810,2.11,3.7,56.7,-9999.0,'1111122,1111122,1111122' 
SCCF RECON,ioos:station:SCCF:53:1,2014-12-02T00:45:00Z,26.6493,-81.8810,2.11,3.3,72.6,-9999.0,'1111122,1111122,1111122' 
SCCF RECON,ioos:station:SCCF:53:1,2014-12-02T01:00:00Z,26.6493,-81.8810,2.11,3.8,76.8,-9999.0,'1111122,1111122,1111122' 
SCCF RECON,ioos:station:SCCF:53:1,2014-12-02T01:15:00Z,26.6493,-81.8810,2.11,4.1,77.5,-9999.0,'1111122,1111122,1111122' 
SCCF RECON,ioos:station:SCCF:53:1,2014-12-02T01:30:00Z,26.6493,-81.8810,2.11,3.7,74.6,-9999.0,'1111122,1111122,1111122' 
SCCF RECON,ioos:station:SCCF:53:1,2014-12-02T01:45:00Z,26.6493,-81.8810,2.11,3.4,70.3,-9999.0,'1111122,1111122,1111122' 
SCCF RECON,ioos:station:SCCF:53:1,2014-12-02T02:00:00Z,26.6493,-81.8810,2.11,4.1,82.9,-9999.0,'1111122,1111122,1111122' 
SCCF RECON,ioos:station:SCCF:53:1,2014-12-02T02:15:00Z,26.6493,-81.8810,2.11,5.5,70.2,-9999.0,'1111122,1111122,1111122' 
SCCF RECON,ioos:station:SCCF:53:1,2014-12-02T02:30:00Z,26.6493,-81.8810,2.11,2.5,90.3,-9999.0,'1111122,1111122,1111122' 
SCCF RECON,ioos:station:SCCF:53:1,2014-12-02T02:45:00Z,26.6493,-81.8810,2.11,2.2,100.4,-9999.0,'1111122,1111122,1111122' 
SCCF RECON,ioos:station:SCCF:53:1,2014-12-02T03:00:00Z,26.6493,-81.8810,2.11,2.5,83.0,-9999.0,'1111122,1111122,1111122' 
SCCF RECON,ioos:station:SCCF:53:1,2014-12-02T03:15:00Z,26.6493,-81.8810,2.11,1.7,80.9,-9999.0,'1111122,1111122,1111122' 
SCCF RECON,ioos:station:SCCF:53:1,2014-12-02T03:30:00Z,26.6493,-81.8810,2.11,2.1,66.5,-9999.0,'1111122,1111122,1111122' 
SCCF RECON,ioos:station:SCCF:53:1,2014-12-02T03:45:00Z,26.6493,-81.8810,2.11,3.4,55.8,-9999.0,'1111122,1111122,1111122' 
SCCF RECON,ioos:station:SCCF:53:1,2014-12-02T04:00:00Z,26.6493,-81.8810,2.11,2.8,33.3,-9999.0,'1111122,1111122,1111122' 
SCCF RECON,ioos:station:SCCF:53:1,2014-12-02T04:15:00Z,26.6493,-81.8810,2.11,2.7,44.3,-9999.0,'1111122,1111122,1111122' 
SCCF RECON,ioos:station:SCCF:53:1,2014-12-02T04:30:00Z,26.6493,-81.8810,2.11,3.6,35.0,-9999.0,'1111122,1111122,1111122' 
SCCF RECON,ioos:station:SCCF:53:1,2014-12-02T04:45:00Z,26.6493,-81.8810,2.11,3.7,35.3,-9999.0,'1111122,1111122,1111122' 
SCCF RECON,ioos:station:SCCF:53:1,2014-12-02T05:00:00Z,26.6493,-81.8810,2.11,3.2,33.9,-9999.0,'1111122,1111122,1111122' 
SCCF RECON,ioos:station:SCCF:53:1,2014-12-02T05:15:00Z,26.6493,-81.8810,2.11,2.7,34.2,-9999.0,'1111122,1111122,1111122' 
SCCF RECON,ioos:station:SCCF:53:1,2014-12-02T05:30:00Z,26.6493,-81.8810,2.11,3.5,43.5,-9999.0,'1111122,1111122,1111122' 
SCCF RECON,ioos:station:SCCF:53:1,2014-12-02T05:45:00Z,26.6493,-81.8810,2.11,3.7,45.9,-9999.0,'1111122,1111122,1111122' 
SCCF RECON,ioos:station:SCCF:53:1,2014-12-02T06:00:00Z,26.6493,-81.8810,2.11,3.7,38.4,-9999.0,'1111122,1111122,1111122' 
SCCF RECON,ioos:station:SCCF:53:1,2014-12-02T06:15:00Z,26.6493,-81.8810,2.11,3.7,47.4,-9999.0,'1111122,1111122,1111122' 
SCCF RECON,ioos:station:SCCF:53:1,2014-12-02T06:30:00Z,26.6493,-81.8810,2.11,3.0,43.6,-9999.0,'1111122,1111122,1111122' 
SCCF RECON,ioos:station:SCCF:53:1,2014-12-02T06:45:00Z,26.6493,-81.8810,2.11,4.3,48.4,-9999.0,'1111122,1111122,1111122' 
SCCF RECON,ioos:station:SCCF:53:1,2014-12-02T07:00:00Z,26.6493,-81.8810,2.11,4.4,45.5,-9999.0,'1111122,1111122,1111122' 
SCCF RECON,ioos:station:SCCF:53:1,2014-12-02T07:15:00Z,26.6493,-81.8810,2.11,3.1,40.3,-9999.0,'1111122,1111122,1111122' 
SCCF RECON,ioos:station:SCCF:53:1,2014-12-02T07:30:00Z,26.6493,-81.8810,2.11,2.8,44.8,-9999.0,'1111122,1111122,1111122' 
SCCF RECON,ioos:station:SCCF:53:1,2014-12-02T07:45:00Z,26.6493,-81.8810,2.11,3.0,35.6,-9999.0,'1111122,1111122,1111122' 
SCCF RECON,ioos:station:SCCF:53:1,2014-12-02T08:00:00Z,26.6493,-81.8810,2.11,3.6,46.2,-9999.0,'1111122,1111122,1111122' 
SCCF RECON,ioos:station:SCCF:53:1,2014-12-02T08:15:00Z,26.6493,-81.8810,2.11,4.0,47.8,-9999.0,'1111122,1111122,1111122' 
SCCF RECON,ioos:station:SCCF:53:1,2014-12-02T08:30:00Z,26.6493,-81.8810,2.11,4.3,35.0,-9999.0,'1111122,1111122,1111122' 
SCCF RECON,ioos:station:SCCF:53:1,2014-12-02T08:45:00Z,26.6493,-81.8810,2.11,3.9,40.7,-9999.0,'1111122,1111122,1111122' 
SCCF RECON,ioos:station:SCCF:53:1,2014-12-02T09:00:00Z,26.6493,-81.8810,2.11,4.9,40.8,-9999.0,'1111122,1111122,1111122' 
SCCF RECON,ioos:station:SCCF:53:1,2014-12-02T09:15:00Z,26.6493,-81.8810,2.11,4.2,42.9,-9999.0,'1111122,1111122,1111122' 
SCCF RECON,ioos:station:SCCF:53:1,2014-12-02T09:30:00Z,26.6493,-81.8810,2.11,3.9,42.3,-9999.0,'1111122,1111122,1111122' 
SCCF RECON,ioos:station:SCCF:53:1,2014-12-02T09:45:00Z,26.6493,-81.8810,2.11,3.6,43.5,-9999.0,'1111122,1111122,1111122' 
SCCF RECON,ioos:station:SCCF:53:1,2014-12-02T10:00:00Z,26.6493,-81.8810,2.11,3.9,44.4,-9999.0,'1111122,1111122,1111122' 
SCCF RECON,ioos:station:SCCF:53:1,2014-12-02T10:15:00Z,26.6493,-81.8810,2.11,4.4,42.0,-9999.0,'1111122,1111122,1111122' 
SCCF RECON,ioos:station:SCCF:53:1,2014-12-02T10:30:00Z,26.6493,-81.8810,2.11,5.4,56.6,-9999.0,'1111122,1111122,1111122' 
SCCF RECON,ioos:station:SCCF:53:1,2014-12-02T10:45:00Z,26.6493,-81.8810,2.11,5.0,36.7,-9999.0,'1111122,1111122,1111122' 
SCCF RECON,ioos:station:SCCF:53:1,2014-12-02T11:00:00Z,26.6493,-81.8810,2.11,4.0,44.6,-9999.0,'1111122,1111122,1111122' 
SCCF RECON,ioos:station:SCCF:53:1,2014-12-02T11:15:00Z,26.6493,-81.8810,2.11,3.0,42.0,-9999.0,'1111122,1111122,1111122' 
SCCF RECON,ioos:station:SCCF:53:1,2014-12-02T11:30:00Z,26.6493,-81.8810,2.11,2.9,45.1,-9999.0,'1111122,1111122,1111122' 
SCCF RECON,ioos:station:SCCF:53:1,2014-12-02T11:45:00Z,26.6493,-81.8810,2.11,2.7,47.8,-9999.0,'1111122,1111122,1111122' 
SCCF RECON,ioos:station:SCCF:53:1,2014-12-02T12:00:00Z,26.6493,-81.8810,2.11,2.9,53.7,-9999.0,'1111122,1111122,1111122' 
SCCF RECON,ioos:station:SCCF:53:1,2014-12-02T12:15:00Z,26.6493,-81.8810,2.11,2.6,43.3,-9999.0,'1111122,1111122,1111122' 
SCCF RECON,ioos:station:SCCF:53:1,2014-12-02T12:30:00Z,26.6493,-81.8810,2.11,3.1,22.4,-9999.0,'1111122,1111122,1111122' 
SCCF RECON,ioos:station:SCCF:53:1,2014-12-02T12:45:00Z,26.6493,-81.8810,2.11,3.1,17.9,-9999.0,'1111122,1111122,1111122' 
SCCF RECON,ioos:station:SCCF:53:1,2014-12-02T13:00:00Z,26.6493,-81.8810,2.11,3.6,27.0,-9999.0,'1111122,1111122,1111122' 
SCCF RECON,ioos:station:SCCF:53:1,2014-12-02T13:15:00Z,26.6493,-81.8810,2.11,3.8,35.4,-9999.0,'1111122,1111122,1111122' 
SCCF RECON,ioos:station:SCCF:53:1,2014-12-02T13:30:00Z,26.6493,-81.8810,2.11,3.0,45.2,-9999.0,'1111122,1111122,1111122' 
SCCF RECON,ioos:station:SCCF:53:1,2014-12-02T13:45:00Z,26.6493,-81.8810,2.11,4.3,42.1,-9999.0,'1111122,1111122,1111122' 
SCCF RECON,ioos:station:SCCF:53:1,2014-12-02T14:00:00Z,26.6493,-81.8810,2.11,4.0,46.4,-9999.0,'1111122,1111122,1111122' 
SCCF RECON,ioos:station:SCCF:53:1,2014-12-02T14:15:00Z,26.6493,-81.8810,2.11,4.3,40.0,-9999.0,'1111122,1111122,1111122' 
SCCF RECON,ioos:station:SCCF:53:1,2014-12-02T14:30:00Z,26.6493,-81.8810,2.11,3.8,54.6,-9999.0,'1111122,1111122,1111122' 
SCCF RECON,ioos:station:SCCF:53:1,2014-12-02T14:45:00Z,26.6493,-81.8810,2.11,4.6,42.2,-9999.0,'1111122,1111122,1111122' 
SCCF RECON,ioos:station:SCCF:53:1,2014-12-02T15:00:00Z,26.6493,-81.8810,2.11,4.1,44.6,-9999.0,'1111122,1111122,1111122' 
SCCF RECON,ioos:station:SCCF:53:1,2014-12-02T15:15:00Z,26.6493,-81.8810,2.11,2.8,69.4,-9999.0,'1111122,1111122,1111122' 
SCCF RECON,ioos:station:SCCF:53:1,2014-12-02T15:30:00Z,26.6493,-81.8810,2.11,4.7,47.2,-9999.0,'1111122,1111122,1111122' 
SCCF RECON,ioos:station:SCCF:53:1,2014-12-02T15:45:00Z,26.6493,-81.8810,2.11,4.1,78.4,-9999.0,'1111122,1111122,1111122' 
SCCF RECON,ioos:station:SCCF:53:1,2014-12-02T16:00:00Z,26.6493,-81.8810,2.11,3.0,51.0,-9999.0,'1111122,1111122,1111122' 
SCCF RECON,ioos:station:SCCF:53:1,2014-12-02T16:15:00Z,26.6493,-81.8810,2.11,5.5,84.8,-9999.0,'1111122,1111122,1111122' 
SCCF RECON,ioos:station:SCCF:53:1,2014-12-02T16:30:00Z,26.6493,-81.8810,2.11,4.8,78.7,-9999.0,'1111122,1111122,1111122' 
SCCF RECON,ioos:station:SCCF:53:1,2014-12-02T16:45:00Z,26.6493,-81.8810,2.11,5.4,57.8,-9999.0,'1111122,1111122,1111122' 
SCCF RECON,ioos:station:SCCF:53:1,2014-12-02T17:00:00Z,26.6493,-81.8810,2.11,4.0,59.2,-9999.0,'1111122,1111122,1111122' 
SCCF RECON,ioos:station:SCCF:53:1,2014-12-02T17:15:00Z,26.6493,-81.8810,2.11,6.5,55.4,-9999.0,'1111122,1111122,1111122' 
SCCF RECON,ioos:station:SCCF:53:1,2014-12-02T17:30:00Z,26.6493,-81.8810,2.11,6.2,72.4,-9999.0,'1111122,1111122,1111122' 
SCCF RECON,ioos:station:SCCF:53:1,2014-12-02T17:45:00Z,26.6493,-81.8810,2.11,4.6,123.6,-9999.0,'1111122,1111122,1111122' 
SCCF RECON,ioos:station:SCCF:53:1,2014-12-02T18:00:00Z,26.6493,-81.8810,2.11,2.9,95.0,-9999.0,'1111122,1111122,1111122' 
SCCF RECON,ioos:station:SCCF:53:1,2014-12-02T18:15:00Z,26.6493,-81.8810,2.11,5.1,91.6,-9999.0,'1111122,1111122,1111122' 
SCCF RECON,ioos:station:SCCF:53:1,2014-12-02T18:30:00Z,26.6493,-81.8810,2.11,6.8,108.7,-9999.0,'1111122,1111122,1111122' 
SCCF RECON,ioos:station:SCCF:53:1,2014-12-02T18:45:00Z,26.6493,-81.8810,2.11,4.1,61.6,-9999.0,'1111122,1111122,1111122' 
SCCF RECON,ioos:station:SCCF:53:1,2014-12-02T19:00:00Z,26.6493,-81.8810,2.11,5.0,82.5,-9999.0,'1111122,1111122,1111122' 
SCCF RECON,ioos:station:SCCF:53:1,2014-12-02T19:15:00Z,26.6493,-81.8810,2.11,2.7,66.4,-9999.0,'1111122,1111122,1111122' 
SCCF RECON,ioos:station:SCCF:53:1,2014-12-02T19:30:00Z,26.6493,-81.8810,2.11,3.8,55.8,-9999.0,'1111122,1111122,1111122' 
SCCF RECON,ioos:station:SCCF:53:1,2014-12-02T19:45:00Z,26.6493,-81.8810,2.11,2.9,45.2,-9999.0,'1111122,1111122,1111122' 
SCCF RECON,ioos:station:SCCF:53:1,2014-12-02T20:00:00Z,26.6493,-81.8810,2.11,4.2,52.8,-9999.0,'1111122,1111122,1111122' 
SCCF RECON,ioos:station:SCCF:53:1,2014-12-02T20:15:00Z,26.6493,-81.8810,2.11,3.3,52.1,-9999.0,'1111122,1111122,1111122' 
SCCF RECON,ioos:station:SCCF:53:1,2014-12-02T20:30:00Z,26.6493,-81.8810,2.11,6.8,89.1,-9999.0,'1111122,1111122,1111122' 
SCCF RECON,ioos:station:SCCF:53:1,2014-12-02T20:45:00Z,26.6493,-81.8810,2.11,4.0,91.9,-9999.0,'1111122,1111122,1111122' 
SCCF RECON,ioos:station:SCCF:53:1,2014-12-02T21:00:00Z,26.6493,-81.8810,2.11,1.8,66.2,-9999.0,'1111122,1111122,1111122' 
SCCF RECON,ioos:station:SCCF:53:1,2014-12-02T21:15:00Z,26.6493,-81.8810,2.11,2.5,60.1,-9999.0,'1111122,1111122,1111122' 
SCCF RECON,ioos:station:SCCF:53:1,2014-12-02T21:30:00Z,26.6493,-81.8810,2.11,3.3,57.0,-9999.0,'1111122,1111122,1111122' 
SCCF RECON,ioos:station:SCCF:53:1,2014-12-02T21:45:00Z,26.6493,-81.8810,2.11,3.4,55.9,-9999.0,'1111122,1111122,1111122' 
SCCF RECON,ioos:station:SCCF:53:1,2014-12-02T22:00:00Z,26.6493,-81.8810,2.11,3.8,80.0,-9999.0,'1111122,1111122,1111122' 
SCCF RECON,ioos:station:SCCF:53:1,2014-12-02T22:15:00Z,26.6493,-81.8810,2.11,3.5,82.5,-9999.0,'1111122,1111122,1111122' 
SCCF RECON,ioos:station:SCCF:53:1,2014-12-02T22:30:00Z,26.6493,-81.8810,2.11,2.8,74.6,-9999.0,'1111122,1111122,1111122' 
SCCF RECON,ioos:station:SCCF:53:1,2014-12-02T22:45:00Z,26.6493,-81.8810,2.11,3.0,71.6,-9999.0,'1111122,1111122,1111122' 
SCCF RECON,ioos:station:SCCF:53:1,2014-12-02T23:00:00Z,26.6493,-81.8810,2.11,3.3,70.8,-9999.0,'1111122,1111122,1111122' 
SCCF RECON,ioos:station:SCCF:53:1,2014-12-02T23:15:00Z,26.6493,-81.8810,2.11,3.1,63.9,-9999.0,'1111122,1111122,1111122' 
SCCF RECON,ioos:station:SCCF:53:1,2014-12-02T23:30:00Z,26.6493,-81.8810,2.11,2.6,66.6,-9999.0,'1111122,1111122,1111122' 
SCCF RECON,ioos:station:SCCF:53:1,2014-12-02T23:45:00Z,26.6493,-81.8810,2.11,1.9,84.3,-9999.0,'1111122,1111122,1111122' 
SCCF RECON,ioos:station:SCCF:53:1,2014-12-03T00:00:00Z,26.6493,-81.8810,2.11,2.8,65.4,-9999.0,'1111122,1111122,1111122' 
SCCF RECON,ioos:station:SCCF:53:1,2014-12-03T00:15:00Z,26.6493,-81.8810,2.11,2.6,95.7,-9999.0,'1111122,1111122,1111122' 
SCCF RECON,ioos:station:SCCF:53:1,2014-12-03T00:30:00Z,26.6493,-81.8810,2.11,2.2,66.5,-9999.0,'1111122,1111122,1111122' 
SCCF RECON,ioos:station:SCCF:53:1,2014-12-03T00:45:00Z,26.6493,-81.8810,2.11,1.7,75.0,-9999.0,'1111122,1111122,1111122' 
SCCF RECON,ioos:station:SCCF:53:1,2014-12-03T01:00:00Z,26.6493,-81.8810,2.11,1.7,84.4,-9999.0,'1111122,1111122,1111122' 